Location: *
(50.0228°S, 177.2688°W)
Time: 03:52:06
(UTC+00:00)

STARLINK-1149 - Pass Details

Date: 07 April 2020
Orbit: 549 x 551 km, 53.0° (Epoch: 04 June)

Event Time Altitude Azimuth Distance (km) Brightness Sun altitude
Rises 07:09:22 0° 306° (NW) 2,738 7.8 -17.9°
Reaches altitude 10° 07:11:37 10° 309° (NW) 1,846 6.8 -18.3°
Maximum altitude 07:15:45 61° 29° (NNE) 637 3.7 -18.9°
Enters shadow 07:16:37 49° 80° (E) 732 3.8 -19.0°
